Weather History for Pellston, MI

Change the Weather History Date:

Wednesday, April 17, 2013

  Actual Average Record
Temperature  
Mean Temperature 35 °F -  
Max Temperature 48 °F 52 °F 83 °F (1958)
Min Temperature 24 °F 31 °F 10 °F (1949)
Degree Days  
Heating Degree Days 30    
Moisture  
Dew Point 28 °F    
Average Humidity 71    
Maximum Humidity 88    
Minimum Humidity 51    
Precipitation  
Precipitation 0.00 in - - ()
Sea Level Pressure  
Sea Level Pressure 30.32 in    
Wind  
Wind Speed 5 mph (East)    
Max Wind Speed 17 mph    
Max Gust Speed 23 mph    
Visibility 10 miles    
Events Rain    
Averages and records for this station are not official NWS values.
T = Trace of Precipitation, MM = Missing Value Source: NWS Daily Summary

Daily Weather History Graph

Daily Weather History Graph

Search for Another Location

Airport:

Trip Planner

Search our weather history database for the weather conditions in past years. The results will help you decide how hot, cold, wet, or windy it might be!

Date:

Astronomy

Apr. 17, 2013 Rise Set
Actual Time 6:49 AM EDT 8:28 PM EDT
Civil Twilight 6:18 AM EDT 8:59 PM EDT
Nautical Twilight 5:40 AM EDT 9:37 PM EDT
Astronomical Twilight 4:59 AM EDT 10:19 PM EDT
Moon 11:57 AM EDT (4/17) 2:11 AM EDT (4/17)
Length of Visible Light 14h 41m
Length of Day
13h 38m
Waxing Crescent, 42% of the Moon is Illuminated
Apr 17
Waxing Crescent
Apr 18
First Quarter
Apr 25
Full
May 2
Last Quarter
May 9
New

Hourly Weather History & Observations

Time (EDT) Temp. Windchill Dew Point Humidity Pressure Visibility Wind Dir Wind Speed Gust Speed Precip Events Conditions
12:54 AM 30.9 °F - 25.0 °F 79% 30.36 in 10.0 mi Calm Calm - N/A   Clear
1:54 AM 28.0 °F 22.8 °F 25.0 °F 88% 30.38 in 10.0 mi West 4.6 mph - N/A   Clear
2:54 AM 28.0 °F 24.2 °F 25.0 °F 88% 30.39 in 10.0 mi WNW 3.5 mph - N/A   Clear
3:54 AM 28.0 °F - 25.0 °F 88% 30.40 in 10.0 mi Calm Calm - N/A   Clear
4:54 AM 26.1 °F - 23.0 °F 88% 30.41 in 10.0 mi Calm Calm - N/A   Clear
5:54 AM 25.0 °F - 21.9 °F 88% 30.42 in 10.0 mi Calm Calm - N/A   Clear
6:54 AM 24.1 °F - 19.9 °F 84% 30.43 in 10.0 mi Calm Calm - N/A   Clear
7:54 AM 28.0 °F - 25.0 °F 88% 30.43 in 10.0 mi Calm Calm - N/A   Clear
8:54 AM 35.1 °F 29.3 °F 30.0 °F 82% 30.43 in 10.0 mi East 6.9 mph - N/A   Clear
10:54 AM 43.0 °F 37.2 °F 30.0 °F 60% 30.44 in 10.0 mi ESE 10.4 mph 16.1 mph N/A   Partly Cloudy
11:54 AM 44.1 °F 38.6 °F 30.0 °F 58% 30.42 in 10.0 mi East 10.4 mph - N/A   Clear
12:54 PM 46.0 °F 40.2 °F 30.9 °F 56% 30.39 in 10.0 mi ENE 12.7 mph 19.6 mph N/A   Clear
1:54 PM 46.9 °F - 30.9 °F 54% 30.36 in 10.0 mi East 11.5 mph - N/A   Partly Cloudy
2:54 PM 46.9 °F - 30.9 °F 54% 30.33 in 10.0 mi East 16.1 mph - N/A   Clear
3:54 PM 46.0 °F 39.0 °F 28.9 °F 51% 30.31 in 10.0 mi East 17.3 mph 23.0 mph N/A   Partly Cloudy
4:54 PM 44.1 °F 37.7 °F 28.9 °F 55% 30.32 in 10.0 mi East 12.7 mph - N/A   Overcast
5:54 PM 43.0 °F 36.4 °F 28.0 °F 56% 30.29 in 10.0 mi East 12.7 mph 21.9 mph N/A   Mostly Cloudy
6:54 PM 41.0 °F 33.1 °F 28.0 °F 60% 30.25 in 10.0 mi East 15.0 mph - N/A   Overcast
7:54 PM 41.0 °F 34.3 °F 26.1 °F 55% 30.22 in 10.0 mi ESE 11.5 mph 20.7 mph N/A   Overcast
8:54 PM 39.9 °F 32.9 °F 25.0 °F 55% 30.22 in 10.0 mi East 11.5 mph - N/A   Overcast
9:54 PM 39.0 °F 32.8 °F 27.0 °F 62% 30.17 in 10.0 mi ESE 9.2 mph - N/A   Overcast
10:54 PM 37.9 °F 32.7 °F 30.9 °F 76% 30.17 in 10.0 mi ESE 6.9 mph - 0.00 in Rain Light Rain
11:17 PM 37.4 °F 32.1 °F 30.2 °F 75% 30.14 in 10.0 mi East 6.9 mph - 0.00 in   Overcast
11:45 PM 37.4 °F 32.1 °F 32.0 °F 81% 30.13 in 10.0 mi East 6.9 mph - 0.00 in   Overcast
11:54 PM 37.0 °F 31.6 °F 32.0 °F 82% 30.14 in 10.0 mi East 6.9 mph - 0.00 in   Overcast